Regional Weather Roundup
Issued by NWS

Home | Current Version | Previous Version | Text Only | Print | Product List | Glossary Off
Versions: 1 2 3 4 5 6 7 8 9 10 11 12 13 14 15 16 17 18 19 20 21 22 23 24 25 26 27 28 29 30 31 32 33 34 35 36 37 38 39 40 41 42 43 44 45 46 47 48 49 50

000
ASUS44 KMEG 201400
RWRTN
TENNESSEE HOURLY STATE WEATHER ROUNDUP
NATIONAL WEATHER SERVICE MEMPHIS TN
800 AM CST SAT DEC 20 2014

TNZ002-004-019-021-049-052-054-088>092-201500-
WEST TENNESSEE

CITY           SKY/WX    TMP DP  RH WIND       PRES   REMARKS
MEMPHIS INTL   MOCLDY    40  32  73 NE8       30.27S WCI  34
NWS MEMPHIS      N/A     38 N/A N/A MISG        N/A
JACKSON        CLOUDY    37  30  75 CALM      30.29R
DYERSBURG      CLOUDY    37  21  52 NE6       30.30S WCI  33
UNION CITY     CLOUDY    34  28  80 CALM      30.28R
PARIS          CLOUDY    32  27  80 NE3       30.28R
LEXINGTON      CLOUDY    32  28  86 NE3       30.26R
SAVANNAH       CLEAR     30  30 100 CALM      30.27R
$$

TNZ008-025-027-028-033-062-065-066-201500-
NORTH MIDDLE TENNESSEE

CITY           SKY/WX    TMP DP  RH WIND       PRES   REMARKS
NASHVILLE      MOSUNNY   33  27  78 N5        30.28S WCI  29
CLARKSVILLE    CLOUDY    33  27  78 CALM      30.29R
COOKEVILLE     PTSUNNY   34  30  86 CALM      30.24R
CROSSVILLE     CLOUDY    35  29  78 CALM      30.20S
$$

TNZ061-075-076-078-094-096-097-201500-
SOUTH MIDDLE TENNESSEE

CITY           SKY/WX    TMP DP  RH WIND       PRES   REMARKS
FAYETTEVILLE   SUNNY     30  27  86 MISG      30.23R
TULLAHOMA      SUNNY     30  27  86 CALM      30.23F
WINCHESTER     SUNNY     30  30 100 CALM      30.24R
SHELBYVILLE    SUNNY     30  28  93 CALM      30.25F
$$

TNZ017-018-042-046-047-201500-
NORTHEAST TENNESSEE

CITY           SKY/WX    TMP DP  RH WIND       PRES   REMARKS
TRI CITIES     CLOUDY    36  31  82 CALM      30.19S
ELIZABETHTON   CLOUDY    37  34  87 E3        30.18S
$$

TNZ012-013-036-069-073-074-201500-
CENTRAL EAST TENNESSEE

CITY           SKY/WX    TMP DP  RH WIND       PRES   REMARKS
KNOXVILLE      CLOUDY    38  31  76 N3        30.23R
OAK RIDGE      CLOUDY    40  31  70 CALM      30.24R
GATLINBURG     CLOUDY    36  32  87 CALM      30.22R
$$

TNZ083-085-099-201500-
SOUTHEAST TENNESSEE

CITY           SKY/WX    TMP DP  RH WIND       PRES   REMARKS
CHATTANOOGA    CLOUDY    42  32  67 NE3       30.24R
$$

SKY/WX REPORTED AS FAIR MEANS FEW OR NO CLOUDS BELOW
12 THOUSAND FEET.



USA.gov is the U.S. government's official web portal to all federal, state and local government web resources and services.